Portada
METAR-TAF:

METAR-TAF

Aeropuertos :

Noshahr, Irán

latitud: 36-39-48N, longitud: 051-27-53E, altitud: 0 m

Observación

El informe se hizo hace 13 minutos, a las 13:00 UTC
Viento 17 kt del oeste-noroeste
Temperatura 8°C
Humedad 76%
Presión 1026 hPa
Visibilidad 10 km o más
Nubes dispersas a una altura de 2000 ft
Nubes dispersas a una altura de 2300 ft, Cumulonimbus.
Cielo nuboso a una altura de 2700 ft

METAR: OINN 201300Z 29017KT 9999 SCT020 SCT023CB BKN027 08/04 Q1026

Hora: 16:43 (13:13 UTC)


TAF: falta

Observaciones y pronósticos meteorológicos de más de 4000 aeropuertos (mensajes METAR y TAF).

Los puntos amarillos y rojos representan las estaciones disponibles.

Ponga el ratón en el punto deseado para ver el nombre de la estación.

Haga clic para ver las observaciones y los pronósticos meteorológicos.

Para cambiar el mapa : haga clic en los botones verdes con una cruz de color negro para hacer un zoom, en el botón verde con un guión para alejar o en las flechas verdes para mapas adyacentes.


METAR-TAF: